Regional Weather Roundup
Issued by NWS

Home | Current Version | Previous Version | Text Only | Print | Product List | Glossary On
Versions: 1 2 3 4 5 6 7 8 9 10 11 12 13 14 15 16 17 18 19 20 21 22 23 24 25 26 27 28 29 30 31 32 33 34 35 36 37 38 39 40 41 42 43 44 45 46 47 48 49 50
000
ASUS45 KPSR 190810
RWRAZ

ARIZONA HOURLY REGIONAL WEATHER ROUNDUP
NATIONAL WEATHER SERVICE PHOENIX AZ
100 AM MST FRI JAN 19 2018

NOTE: FAIR INDICATES FEW OR NO CLOUDS BELOW 12,000 FEET WITH NO
SIGNIFICANT WEATHER AND/OR OBSTRUCTIONS TO VISIBILITY.

AZZ001>003-036-190900-
NORTHWEST ARIZONA

CITY           SKY/WX    TMP DP  RH WIND       PRES   REMARKS
BULLHEAD CITY  PTCLDY    57  32  38 CALM      30.02F
KINGMAN        PTCLDY    48  27  44 SE14      30.09F
$$

AZZ004>008-015-016-018-190900-
NORTH CENTRAL ARIZONA

CITY           SKY/WX    TMP DP  RH WIND       PRES   REMARKS
GRAND CANYON   PTCLDY    23  17  78 NE5       30.19S WCI  17
WILLIAMS       PTCLDY    36  16  44 S12       30.15F WCI  27
PRESCOTT       PTCLDY    38  24  57 S5        30.14F WCI  34
FLAGSTAFF      PTCLDY    26  17  68 CALM      30.19F
PAYSON         MOCLDY    39  18  41 CALM      30.17F
PAGE           CLOUDY    39  24  55 S3        30.12F
$$

AZZ009>014-017-190900-
NORTHEAST ARIZONA

CITY           SKY/WX    TMP DP  RH WIND       PRES   REMARKS
WINSLOW        MOCLDY    27  10  49 SE3       30.16F
SAINT JOHNS    MOCLDY    30  18  60 S5        30.18F WCI  25
WINDOW ROCK    MOCLDY    22  14  71 CALM      30.20F
SHOW LOW       MOCLDY    36  21  55 SW6       30.20F WCI  31
$$

AZZ540-542>544-546-548-190900-
GREATER PHOENIX AREA

CITY           SKY/WX    TMP DP  RH WIND       PRES   REMARKS
PHOENIX        MOCLDY    57  30  35 SE6       30.03F
BUCKEYE        PTCLDY    46  32  57 N7        30.04F
LUKE AFB       PTCLDY    48  36  62 N8        30.03F
DEER VALLEY    PTCLDY    55  28  35 CALM      30.04F
SCOTTSDALE     PTCLDY    53  33  46 CALM      30.05F
MESA-GATEWAY   MOCLDY    49  28  44 SE8       30.06F
$$

AZZ539-553-190900-
SOUTHWEST MARICOPA COUNTY AND PINAL COUNTY

CITY           SKY/WX    TMP DP  RH WIND       PRES   REMARKS
CASA GRANDE    NOT AVBL
GILA BEND      FAIR      49  27  42 CALM      30.02F
$$

AZZ503-504-507>509-190900-
SOUTHEAST ARIZONA

CITY           SKY/WX    TMP DP  RH WIND       PRES   REMARKS
TUCSON         MOCLDY    48  22  35 SE9       30.11F
DAVIS-MONTHAN  MOCLDY    49  20  31 E5        30.09F
NOGALES        CLEAR     41  19  41 NE3       30.13F
SIERRA VISTA   PTCLDY    42  16  34 SW3       30.16F
DOUGLAS        CLEAR     32  16  51 E5        30.16F WCI  27
SAFFORD        CLEAR     35  16  45 CALM      30.14F
$$

AZZ532-190900-
SOUTHWEST ARIZONA

CITY           SKY/WX    TMP DP  RH WIND       PRES   REMARKS
YUMA           CLEAR     58  32  37 NE5       30.00S
$$

CAZ041-043-047-048-061-525>527-560>570-190900-
SOUTHERN CALIFORNIA

CITY           SKY/WX    TMP DP  RH WIND       PRES   REMARKS
DOWNTOWN L.A.  PTCLDY    59  57  93 CALM      30.03F FOG
L.A. AIRPORT   PTCLDY    59  57  93 CALM      30.04S
SAN DIEGO      MOCLDY    59  56  89 CALM      30.07R FOG
BURBANK        CLEAR     57  51  80 CALM      30.02F
ONTARIO        PTCLDY    54  45  71 W5        30.03F
RIVERSIDE      CLEAR     56  46  69 CALM      30.04F
PALM SPRINGS   CLEAR     58  43  57 NW5       30.01F
EL CENTRO NAS  CLEAR     52  34  50 SW5       30.00F
IMPERIAL       CLEAR     52  38  58 SW5       29.99F
BLYTHE         CLEAR     51  33  50 N6        30.01F
NEEDLES        PTCLDY    59  32  36 SW5       30.02F
$$

NVZ020-UTZ003-190900-
SOUTHERN NEVADA-UTAH

CITY           SKY/WX    TMP DP  RH WIND       PRES   REMARKS
LAS VEGAS      MOCLDY    53  41  63 SW3       30.00F
SALT LAKE CITY CLOUDY    56  28  34 S22G32    29.85F
$$

NMZ009-TXZ055-190900-
NEW MEXICO-WEST TEXAS

CITY           SKY/WX    TMP DP  RH WIND       PRES   REMARKS
ALBUQUERQUE    MOCLDY    34  11  38 SE5       30.17F WCI  30
EL PASO        PTCLDY    35  16  45 SE3       30.17F
$$


........................KEY........................
SKY/WX - SKY CONDITION/WEATHER
TMP    - TEMPERATURE IN FAHRENHEIT
DP     - DEW POINT IN FAHRENHEIT
RH     - RELATIVE HUMIDITY IN PERCENT
WIND   - DIRECTION AND SPEED IN MILES PER HOUR (MPH)
VRB    - VARIABLE WIND DIRECTION
PRES   - MEAN SEA LEVEL PRESSURE IN INCHES OF MERCURY
         F - FALLING PRESSURE   R - RISING PRESSURE
         S - STEADY PRESSURE
VSB    - VISIBILITY IN MILES
HX     - HEAT INDEX IN FAHRENHEIT
WCI    - WIND CHILL INDEX IN FAHRENHEIT
TC     - TEMPERATURE IN CELSIUS WHICH IS ALSO KNOWN AS
         TEMPERATURE IN CENTIGRADE
AFB    - AIR FORCE BASE
         LUKE AFB IS LUKE AIR FORCE BASE
         DAVIS-MONTHAN IS DAVIS-MONTHAN AIR FORCE BASE
NAS    - NAVAL AIR STATION
         EL CENTRO NAS IS EL CENTRO NAVAL AIR STATION
N/A    - NOT AVAILABLE




USA.gov is the U.S. government's official web portal to all federal, state and local government web resources and services.